Location: Casilda
(33.0440°S, 61.1680°W)
Time: 22:06:29
(UTC-03:00)

ISS - Pass Details

Date: 28 January 2023
Orbit: 413 x 419 km, 51.6° (Epoch: 30 January)

Event Time Altitude Azimuth Distance (km) Brightness Sun altitude
Exits shadow 04:22:14 11° 213° (SSW) 1,425 -1.0 -22.4°
Maximum altitude 04:22:30 12° 208° (SSW) 1,421 -0.9 -22.3°
Drops below altitude 10° 04:23:43 10° 187° (S) 1,511 -0.5 -22.1°
Sets 04:27:05 0° 152° (SSE) 2,380 1.3 -21.6°
